Weather in Berdyaush

Russia / Chelyabinsk Oblast     55°09′34″N   59°08′41″E
temp.,
°C
wind,
m/s
gust,
m/s
humid.,
%
clouds,
%
prec.,
mm/h
press.,
hPa
HPBL,
m
17 june, thu
thu1723:00+14sw2394100 3.1 101349
02:00+15se1187100 0.0 101113
05:00+15ssw118499 0.0 101011
08:00+18sw018467 0.6 100885
11:00+25w244895 0.6 1006855
14:00+25wnw4657100 0.9 10061630
17:00+21wnw697917 3.4 1006871
20:00+15nw4118198 0.4 1010892
18 june, fri
fri1823:00+12nw3118511 0.4 1011437
02:00+13nw31163100 0.0 1012614
05:00+10nnw210705 0.0 1013426
08:00+13nnw48564 0.0 1015832
11:00+17nnw58405 0.0 10162178
14:00+19nw573274 0.0 10172745
17:00+18nw673873 0.0 10182213
20:00+15nw510518 0.0 1019854
19 june, sat
sat1923:00+11nw311595 0.0 1021438
02:00+7wsw2185100 0.0 102318
05:00+6wsw229176 0.0 102440
08:00+12w2564100 0.0 1024464
11:00+16wnw5957100 0.0 10221431
14:00+14w6126686 0.2 10211099
17:00+13w5137596 0.2 1020777
20:00+14w41393100 0.6 1018734
20 june, sun
sun2023:00+15w41199100 4.1 1017678
02:00+15w41398100 0.7 1015577
05:00+15w5129894 1.2 1014633
08:00+16wnw5139876 0.1 1015800
11:00+19nw71376100 0.4 10141357
14:00+23nw7124616 0.1 10141741
17:00+22nw712450 0.1 10151659
20:00+17nw611550 0.0 1017923
21 june, mon
mon2123:00+11wnw22780 0.0 101817
02:00+8w11880 0.0 102011
05:00+7wsw22905 0.0 102120
08:00+13nw25581 0.0 1021530
11:00+18nw58395 0.0 10201236
14:00+21nw584133 0.0 10191370
17:00+21nw584747 0.0 10181262
20:00+19nw126954 0.0 101751